AB1IG Weather Reports


Display with metric or nautical units.
time (UTC)temp
F
wind
direction
speed
MPH
gust
MPH
rain 1hr
in
rain 24hr
in
rain mn
in
humidity
%
barometer
mb
20260831004650 97 204 1.0 9.0 0.00 0.00 0.00 31 1006.3
20260831003050 98 192 1.0 8.0 0.00 0.00 0.00 31 1006.2
20260831001550 99 288 2.0 9.0 0.00 0.00 0.00 30 1006.3
20260831000048 99 310 2.0 9.0 0.00 0.00 0.00 30 1006.3
20260830234548 100 183 4.0 9.0 0.00 0.00 0.00 29 1006.2
20260830233047 100 111 2.0 7.0 0.00 0.00 0.00 29 1006.3
20260830231546 101 212 3.0 9.0 0.00 0.00 0.00 28 1006.3
20260830230045 103 77 2.0 6.0 0.00 0.00 0.00 27 1006.3
20260830224544 103 153 2.0 7.0 0.00 0.00 0.00 26 1006.2
20260830223042 103 315 3.0 8.0 0.00 0.00 0.00 27 1006.2
20260830221546 104 70 2.0 9.0 0.00 0.00 0.00 27 1006.2
20260830220046 103 332 4.0 11.0 0.00 0.00 0.00 27 1006.2
20260830214543 103 121 4.0 13.0 0.00 0.00 0.00 28 1006.3
20260830213048 103 184 4.0 10.0 0.00 0.00 0.00 27 1006.6
20260830211551 103 319 3.0 9.0 0.00 0.00 0.00 27 1006.8
20260830210050 103 290 2.0 7.0 0.00 0.00 0.00 28 1006.9
20260830204534 104 229 3.0 9.0 0.00 0.00 0.00 27 1007.1
20260830203041 103 159 3.0 10.0 0.00 0.00 0.00 28 1007.4
20260830201528 104 163 3.0 9.0 0.00 0.00 0.00 27 1007.6
20260830200025 104 252 3.0 6.0 0.00 0.00 0.00 28 1007.8
20260830194521 103 95 3.0 9.0 0.00 0.00 0.00 29 1007.8
20260830193021 102 359 4.0 9.0 0.00 0.00 0.00 29 1008.1
20260830191518 102 256 3.0 7.0 0.00 0.00 0.00 30 1008.1
20260830190011 101 264 5.0 9.0 0.00 0.00 0.00 30 1008.3
20260830184509 101 319 2.0 11.0 0.00 0.00 0.00 30 1008.3
20260830183006 101 180 3.0 11.0 0.00 0.00 0.00 32 1008.7
20260830181504 101 186 4.0 10.0 0.00 0.00 0.00 31 1009.0
20260830180001 100 317 3.0 12.0 0.00 0.00 0.00 33 1009.1
20260830174602 100 155 3.0 8.0 0.00 0.00 0.00 35 1009.1
20260830173056 99 259 3.0 12.0 0.00 0.00 0.00 35 1009.4
20260830171552 98 255 4.0 11.0 0.00 0.00 0.00 36 1009.6
20260830170049 97 185 4.0 15.0 0.00 0.00 0.00 37 1009.7
20260830164549 97 124 5.0 13.0 0.00 0.00 0.00 38 1009.9
20260830163045 96 13 5.0 13.0 0.00 0.00 0.00 38 1010.0
20260830161558 95 174 6.0 13.0 0.00 0.00 0.00 39 1010.0
20260830160039 94 11 4.0 11.0 0.00 0.00 0.00 41 1010.1
20260830154539 93 149 4.0 12.0 0.00 0.00 0.00 42 1010.0
20260830153048 92 242 5.0 11.0 0.00 0.00 0.00 44 1010.0
20260830151527 90 209 5.0 10.0 0.00 0.00 0.00 46 1010.1
20260830150023 88 214 2.0 9.0 0.00 0.00 0.00 50 1010.1
20260830144520 85 135 4.0 10.0 0.00 0.00 0.00 52 1010.3
20260830143025 84 93 3.0 8.0 0.00 0.00 0.00 54 1010.3
20260830141519 83 186 3.0 8.0 0.00 0.00 0.00 55 1010.5
20260830140021 81 167 3.0 8.0 0.00 0.00 0.00 56 1010.5
20260830134528 80 157 3.0 11.0 0.00 0.00 0.00 57 1010.4
20260830133018 80 198 3.0 11.0 0.00 0.00 0.00 58 1010.4
20260830131515 79 232 4.0 9.0 0.00 0.00 0.00 57 1010.4
20260830130013 79 205 2.0 7.0 0.00 0.00 0.00 58 1010.2
20260830124511 79 239 2.0 8.0 0.00 0.00 0.00 58 1010.1
20260830123011 79 190 2.0 12.0 0.00 0.00 0.00 58 1009.9
20260830121512 78 249 3.0 12.0 0.00 0.00 0.00 58 1009.8
20260830120008 78 186 2.0 9.0 0.00 0.00 0.00 58 1009.7
20260830114517 79 245 2.0 12.0 0.00 0.00 0.00 57 1009.7
20260830113005 79 77 2.0 9.0 0.00 0.00 0.00 57 1009.6
20260830111513 79 200 3.0 7.0 0.00 0.00 0.00 57 1009.7
20260830110004 79 282 2.0 8.0 0.00 0.00 0.00 57 1009.5
20260830104501 79 217 2.0 9.0 0.00 0.00 0.00 56 1009.4
20260830103101 79 209 1.0 5.0 0.00 0.00 0.00 56 1009.5
20260830101608 80 288 2.0 6.0 0.00 0.00 0.00 55 1009.3
20260830100056 80 250 2.0 7.0 0.00 0.00 0.00 54 1009.2
20260830094604 80 252 2.0 5.0 0.00 0.00 0.00 54 1009.2
20260830093055 80 172 3.0 8.0 0.00 0.00 0.00 54 1009.1
20260830091552 81 271 2.0 7.0 0.00 0.00 0.00 53 1008.8
20260830090055 81 233 2.0 8.0 0.00 0.00 0.00 53 1009.0
20260830084549 81 129 2.0 9.0 0.00 0.00 0.00 52 1008.9
20260830083058 82 286 2.0 8.0 0.00 0.00 0.00 52 1008.9
20260830081552 82 276 2.0 7.0 0.00 0.00 0.00 51 1009.0
20260830080044 82 60 3.0 8.0 0.00 0.00 0.00 50 1008.9
20260830074552 83 207 3.0 12.0 0.00 0.00 0.00 50 1009.0
20260830073040 83 146 2.0 9.0 0.00 0.00 0.00 49 1009.1
20260830071544 83 160 1.0 7.0 0.00 0.00 0.00 48 1009.0
20260830070043 83 194 2.0 7.0 0.00 0.00 0.00 48 1009.1
20260830064533 84 184 1.0 7.0 0.00 0.00 0.00 47 1009.1
20260830063032 85 247 3.0 9.0 0.00 0.00 0.00 46 1009.1
20260830061528 85 118 3.0 9.0 0.00 0.00 0.00 45 1009.1
20260830060027 86 207 2.0 8.0 0.00 0.00 0.00 45 1009.2
20260830054525 86 210 1.0 8.0 0.00 0.00 0.00 45 1009.1
20260830053025 86 160 0.0 5.0 0.00 0.00 0.00 44 1009.2
20260830051520 87 200 1.0 5.0 0.00 0.00 0.00 44 1009.2
20260830050017 87 293 3.0 9.0 0.00 0.00 0.00 44 1009.2
20260830044519 88 158 2.0 7.0 0.00 0.00 0.00 43 1009.3
20260830043023 88 146 2.0 8.0 0.00 0.00 0.00 42 1009.3
20260830041639 88 213 1.0 6.0 0.00 0.00 0.00 42 1009.2
20260830040017 89 162 3.0 7.0 0.00 0.00 0.00 41 1009.2
20260830034515 90 183 1.0 8.0 0.00 0.00 0.00 40 1009.1
20260830033014 90 278 1.0 9.0 0.00 0.00 0.00 39 1009.0
20260830031517 91 242 2.0 8.0 0.00 0.00 0.00 38 1008.8
20260830030017 91 267 3.0 9.0 0.00 0.00 0.00 38 1008.7
20260830024513 91 141 2.0 6.0 0.00 0.00 0.00 37 1008.6
20260830023017 92 291 3.0 9.0 0.00 0.00 0.00 37 1008.3
20260830021512 92 173 1.0 7.0 0.00 0.00 0.00 37 1008.0
20260830020032 92 130 1.0 8.0 0.00 0.00 0.00 36 1007.8
20260830014510 93 139 1.0 6.0 0.00 0.00 0.00 36 1007.6
20260830013011 93 98 0.0 6.0 0.00 0.00 0.00 35 1007.4
20260830011509 94 109 2.0 7.0 0.00 0.00 0.00 34 1007.2
20260830010015 95 301 1.0 7.0 0.00 0.00 0.00 34 1007.3